This demonstration page uses our WeatherBlox Daily Observations layout. Learn more.

41.55636, -103.73856

Hourly Observations for January 6, 2019

Temp ( °F °C ) Dew Point ( °F °C ) Humidity (%) Winds ( mph kmh ) Pressure ( in mb ) Visibility ( mi km ) Precip ( " mm )
12:58 am 00:58 Mostly Cloudy 40 4.5 23 -4.9 51 51 S 8 13 29.97 1015 10 16.0934 N/A
1:58 am 01:58 Mostly Cloudy 39 3.9 23 -5.1 52 52 S 12 19 30.02 1017 10 16.0934 N/A
2:58 am 02:58 Cloudy 37 2.8 24 -4.4 59 59 S 9 15 29.99 1016 10 16.0934 N/A
3:58 am 03:58 Mostly Cloudy 38 3.1 24 -4.4 58 58 SSW 12 19 29.96 1014 10 16.0934 N/A
4:58 am 04:58 Mostly Cloudy 38 3.1 25 -4 60 60 S 7 11 29.89 1012 10 16.0934 N/A
5:58 am 05:58 Mostly Cloudy 38 3.1 25 -3.9 60 60 SSW 17 28 29.87 1012 10 16.0934 N/A
6:58 am 06:58 Mostly Cloudy 35 1.9 26 -3.6 67 67 S 8 13 29.83 1010 10 16.0934 N/A
7:58 am 07:58 Mostly Cloudy 36 2.3 25 -4.1 63 63 SSW 8 13 29.78 1009 10 16.0934 N/A
8:58 am 08:58 Mostly Cloudy 37 2.5 24 -4.3 61 61 SW 10 17 29.76 1008 10 16.0934 N/A
9:58 am 09:58 Mostly Cloudy 36 2.3 25 -3.8 64 64 NW 3 6 29.76 1008 10 16.0934 N/A
10:58 am 10:58 Mostly Cloudy 37 2.8 24 -4.3 60 60 W 8 13 29.75 1007 10 16.0934 N/A
11:58 am 11:58 Mostly Cloudy 34 1 26 -3.3 73 73 SSW 6 9 29.74 1007 10 16.0934 N/A
12:58 pm 12:58 Cloudy 34 1.3 26 -3.4 71 71 SSW 10 17 29.73 1007 10 16.0934 N/A
1:58 pm 13:58 Mostly Cloudy 33 0.3 26 -3.4 76 76 W 7 11 29.72 1007 10 16.0934 N/A
2:58 pm 14:58 Mostly Sunny 36 2.4 24 -4.4 61 61 W 7 11 29.71 1006 10 16.0934 N/A
3:58 pm 15:58 Mostly Cloudy 40 4.2 27 -2.9 60 60 W 6 9 29.7 1006 10 16.0934 N/A
4:58 pm 16:58 Mostly Cloudy 44 6.6 23 -4.8 44 44 NNW 5 7 29.67 1005 10 16.0934 N/A
5:58 pm 17:58 Partly Cloudy 47 8.4 25 -4 42 42 WNW 8 13 29.62 1003 10 16.0934 N/A
6:58 pm 18:58 Mostly Sunny 47 8.6 27 -2.8 45 45 W 12 19 29.58 1002 10 16.0934 N/A
7:58 pm 19:58 Mostly Sunny 50 9.9 27 -2.7 41 41 W 15 24 29.52 1000 10 16.0934 N/A
8:58 pm 20:58 Mostly Sunny 50 10 26 -3.2 40 40 W 22 35 29.54 1000 10 16.0934 N/A
9:58 pm 21:58 Partly Cloudy 50 10.1 25 -3.7 38 38 W 20 31 29.54 1000 10 16.0934 N/A
10:58 pm 22:58 Mostly Sunny 48 8.7 26 -3.6 42 42 WNW 17 28 29.54 1001 10 16.0934 N/A
11:58 pm 23:58 Clear 42 5.3 26 -3.2 55 55 WNW 15 24 29.6 1003 10 16.0934 N/A

Powered by AerisWeather